Weather in Erzurum

Turkey     39°54′01″N   41°15′57″E
temp.,
°C
wind,
m/s
gust,
m/s
humid.,
%
clouds,
%
prec.,
mm/h
press.,
hPa
HPBL,
m
2 december, thu
thu200:00−4sw348689 0.0 1016197
03:00−5wsw229075 0.0 1018103
06:00−6wsw128878 0.0 1021158
09:00−6wsw228586 0.1 1023304
12:00−3sw227277 0.0 1022646
15:00−2sw326735 0.0 1022649
18:00−5w11835 0.0 102611
21:00−6w00805 0.0 102816
3 december, fri
fri300:00−7ene11765 0.0 102912
03:00−6ene11741 0.0 102916
06:00−7ene11711 0.0 102915
09:00−5ene11605 0.0 1030184
12:00−2n00510 0.0 1027319
15:00−1wnw11500 0.0 1025284
18:00−5ne11640 0.0 102910
21:00−5ne11630 0.0 103010
4 december, sat
sat400:00−6sw00660 0.0 103110
03:00−7nnw00690 0.0 103110
06:00−8ene00700 0.0 103110
09:00−6ne116098 0.0 1030157
12:00−2wnw0045100 0.0 1026255
15:00−1nnw1046100 0.0 1024218
18:00−3ne1155100 0.0 102510
21:00−4ne1157100 0.0 102610
5 december, sun
sun500:00−4n116047 0.0 102610
03:00−4ssw0059100 0.0 102510
06:00−4ne1159100 0.0 102413
09:00−3ne1157100 0.7 1025125
12:000ene115245 0.0 1020326
15:00+1nw0162100 0.0 1019299
18:00−2nne1176100 0.0 102110
21:00−2wnw117898 0.0 102210
6 december, mon
mon600:00−3wnw1179100 0.0 102310
03:00−4wsw118114 0.0 102511
06:00−5wsw11835 0.0 102711
09:00−4wsw11775 0.0 1028107
12:000wsw11661 0.0 1025234
15:00+1wsw11641 0.0 1024240
18:00−2nnw01792 0.0 102710
21:00−3wsw00802 0.0 102910